Time,TemperatureF,DewpointF,PressureIn,WindDirection,WindDirectionDegrees,WindSpeedMPH,WindSpeedGustMPH,Humidity,HourlyPrecipIn,Conditions,Clouds,dailyrainin,SoftwareType,DateUTC
2014-09-16 00:01:00,71.1,66.4,28.70,NNE,22,0.0,0.0,85,0.00,RA,,0.00,WeatherDisplay:10.37,2014-09-16 05:01:00,
2014-09-16 00:06:00,70.9,66.2,28.70,NNE,22,0.0,0.0,85,0.00,RA,,0.00,WeatherDisplay:10.37,2014-09-16 05:06:00,
2014-09-16 00:11:00,70.7,66.0,28.70,NNE,22,0.0,0.0,85,0.00,CLR,,0.00,WeatherDisplay:10.37,2014-09-16 05:11:00,
2014-09-16 00:16:00,70.5,65.8,28.70,NNE,22,0.0,0.0,85,0.00,CLR,,0.00,WeatherDisplay:10.37,2014-09-16 05:16:00,
2014-09-16 00:21:00,70.2,65.8,28.70,NNE,22,0.0,0.0,86,0.00,CLR,,0.00,WeatherDisplay:10.37,2014-09-16 05:21:00,
2014-09-16 00:26:00,70.0,65.6,28.70,NNE,22,0.0,0.0,86,0.00,CLR,,0.00,WeatherDisplay:10.37,2014-09-16 05:26:00,
2014-09-16 00:31:00,69.8,65.8,28.70,NNE,22,3.2,3.2,87,0.00,CLR,,0.00,WeatherDisplay:10.37,2014-09-16 05:31:00,
2014-09-16 00:36:00,69.8,66.1,28.70,NNW,338,0.0,0.0,88,0.00,CLR,,0.00,WeatherDisplay:10.37,2014-09-16 05:36:00,
2014-09-16 00:41:00,69.8,66.1,28.70,NNW,338,0.0,0.0,88,0.00,CLR,,0.00,WeatherDisplay:10.37,2014-09-16 05:41:00,
2014-09-16 00:46:00,69.8,66.1,28.70,NNW,338,0.0,0.0,88,0.00,CLR,,0.00,WeatherDisplay:10.37,2014-09-16 05:46:00,
2014-09-16 00:51:00,69.8,66.4,28.70,NNW,338,0.0,0.0,89,0.00,CLR,,0.00,WeatherDisplay:10.37,2014-09-16 05:51:00,
2014-09-16 00:56:00,70.0,66.6,28.70,NNW,338,0.0,0.0,89,0.00,CLR,,0.00,WeatherDisplay:10.37,2014-09-16 05:56:00,
2014-09-16 01:01:00,70.0,66.6,28.70,West,270,0.0,0.0,89,0.00,CLR,,0.00,WeatherDisplay:10.37,2014-09-16 06:01:00,
2014-09-16 01:06:00,70.0,66.6,28.70,West,270,0.0,0.0,89,0.00,CLR,,0.00,WeatherDisplay:10.37,2014-09-16 06:06:00,
2014-09-16 01:11:00,70.0,66.6,28.70,West,270,0.0,0.0,89,0.00,CLR,,0.00,WeatherDisplay:10.37,2014-09-16 06:11:00,
2014-09-16 01:16:00,70.0,66.6,28.70,West,270,0.0,0.0,89,0.00,CLR,,0.00,WeatherDisplay:10.37,2014-09-16 06:16:00,
2014-09-16 01:21:00,70.0,66.6,28.70,North,360,0.0,0.0,89,0.00,CLR,,0.00,WeatherDisplay:10.37,2014-09-16 06:21:00,
2014-09-16 01:25:00,70.0,66.6,28.70,North,360,0.0,0.0,89,0.00,CLR,,0.00,WeatherDisplay:10.37,2014-09-16 06:25:00,
2014-09-16 01:30:00,70.0,66.6,28.70,NNW,338,0.0,0.0,89,0.00,CLR,,0.00,WeatherDisplay:10.37,2014-09-16 06:30:00,
2014-09-16 01:35:00,70.0,66.6,28.70,NNW,338,0.0,0.0,89,0.00,CLR,,0.00,WeatherDisplay:10.37,2014-09-16 06:35:00,
2014-09-16 01:40:00,70.0,66.6,28.70,North,360,1.1,1.1,89,0.00,CLR,,0.00,WeatherDisplay:10.37,2014-09-16 06:40:00,
2014-09-16 01:45:00,70.0,66.6,28.70,NNE,22,0.0,0.0,89,0.00,CLR,,0.00,WeatherDisplay:10.37,2014-09-16 06:45:00,
2014-09-16 01:50:00,70.0,66.6,28.70,North,360,0.0,0.0,89,0.00,CLR,,0.00,WeatherDisplay:10.37,2014-09-16 06:50:00,
2014-09-16 01:55:00,70.0,66.6,28.71,NNE,22,2.3,2.3,89,0.00,CLR,,0.00,WeatherDisplay:10.37,2014-09-16 06:55:00,
2014-09-16 02:00:00,70.0,66.6,28.71,NW,315,1.2,1.2,89,0.00,CLR,,0.00,WeatherDisplay:10.37,2014-09-16 07:00:00,
2014-09-16 02:05:00,70.0,66.6,28.70,NNW,338,1.7,1.7,89,0.00,CLR,,0.00,WeatherDisplay:10.37,2014-09-16 07:05:00,
2014-09-16 02:09:00,69.8,66.4,28.70,North,360,0.0,0.0,89,0.00,CLR,,0.00,WeatherDisplay:10.37,2014-09-16 07:09:00,
2014-09-16 02:14:00,69.8,66.4,28.70,North,360,0.0,0.0,89,0.00,CLR,,0.00,WeatherDisplay:10.37,2014-09-16 07:14:00,
2014-09-16 02:19:00,69.8,66.4,28.70,North,360,0.0,0.0,89,0.00,CLR,,0.00,WeatherDisplay:10.37,2014-09-16 07:19:00,
2014-09-16 02:24:00,69.8,66.4,28.70,North,360,0.0,0.0,89,0.00,CLR,,0.00,WeatherDisplay:10.37,2014-09-16 07:24:00,
2014-09-16 02:29:00,69.8,66.4,28.70,North,360,0.0,0.0,89,0.00,CLR,,0.00,WeatherDisplay:10.37,2014-09-16 07:29:00,
2014-09-16 02:34:00,69.8,66.4,28.70,North,360,0.0,0.0,89,0.00,CLR,,0.00,WeatherDisplay:10.37,2014-09-16 07:34:00,
2014-09-16 02:39:00,69.8,66.4,28.70,North,360,0.0,0.0,89,0.00,CLR,,0.00,WeatherDisplay:10.37,2014-09-16 07:39:00,
2014-09-16 02:44:00,69.8,66.4,28.70,NNE,22,0.0,0.0,89,0.00,CLR,,0.00,WeatherDisplay:10.37,2014-09-16 07:44:00,
2014-09-16 02:49:00,69.8,66.4,28.70,NNE,22,0.0,0.0,89,0.00,CLR,,0.00,WeatherDisplay:10.37,2014-09-16 07:49:00,
2014-09-16 02:54:00,69.8,66.4,28.70,NNE,22,0.0,0.0,89,0.00,CLR,,0.00,WeatherDisplay:10.37,2014-09-16 07:54:00,
2014-09-16 02:59:00,69.8,66.4,28.70,NNE,22,0.0,0.0,89,0.00,CLR,,0.00,WeatherDisplay:10.37,2014-09-16 07:59:00,
2014-09-16 03:04:00,69.6,66.5,28.70,NE,45,1.7,1.7,90,0.00,CLR,,0.00,WeatherDisplay:10.37,2014-09-16 08:04:00,
2014-09-16 03:09:00,69.4,66.3,28.70,NNE,22,1.2,0.0,90,0.00,CLR,,0.00,WeatherDisplay:10.37,2014-09-16 08:09:00,
2014-09-16 03:14:00,69.4,66.3,28.70,NNE,22,1.2,1.2,90,0.00,CLR,,0.00,WeatherDisplay:10.37,2014-09-16 08:14:00,
2014-09-16 03:17:00,69.4,66.3,28.70,NNE,22,2.2,2.2,90,0.00,CLR,,0.00,WeatherDisplay:10.37,2014-09-16 08:17:00,
2014-09-16 03:22:00,69.4,66.3,28.70,NNE,22,2.3,2.3,90,0.00,CLR,,0.00,WeatherDisplay:10.37,2014-09-16 08:22:00,
2014-09-16 03:27:00,69.4,66.3,28.70,NNE,22,0.0,0.0,90,0.00,CLR,,0.00,WeatherDisplay:10.37,2014-09-16 08:27:00,
2014-09-16 03:31:00,69.4,66.3,28.69,NNE,22,0.0,0.0,90,0.00,CLR,,0.00,WeatherDisplay:10.37,2014-09-16 08:31:00,
2014-09-16 03:36:00,69.4,66.3,28.69,NNW,338,1.2,1.2,90,0.00,CLR,,0.00,WeatherDisplay:10.37,2014-09-16 08:36:00,
2014-09-16 03:41:00,69.1,66.0,28.70,NNE,22,2.3,2.3,90,0.00,CLR,,0.00,WeatherDisplay:10.37,2014-09-16 08:41:00,
2014-09-16 03:46:00,69.1,66.0,28.70,NNW,338,2.3,2.3,90,0.00,CLR,,0.00,WeatherDisplay:10.37,2014-09-16 08:46:00,
2014-09-16 03:51:00,69.1,66.0,28.70,NE,45,1.2,1.2,90,0.00,CLR,,0.00,WeatherDisplay:10.37,2014-09-16 08:51:00,
2014-09-16 03:56:00,68.9,65.8,28.70,NNE,22,2.7,2.7,90,0.00,CLR,,0.00,WeatherDisplay:10.37,2014-09-16 08:56:00,
2014-09-16 04:01:00,68.9,66.2,28.70,North,360,2.3,2.3,91,0.00,CLR,,0.00,WeatherDisplay:10.37,2014-09-16 09:01:00,
2014-09-16 04:06:00,68.9,66.2,28.70,NNE,22,2.3,2.3,91,0.00,CLR,,0.00,WeatherDisplay:10.37,2014-09-16 09:06:00,
2014-09-16 04:11:00,68.9,66.2,28.70,NNW,338,2.3,2.7,91,0.00,CLR,,0.00,WeatherDisplay:10.37,2014-09-16 09:11:00,
2014-09-16 04:16:00,68.5,66.1,28.70,North,360,3.5,3.5,92,0.00,CLR,,0.00,WeatherDisplay:10.37,2014-09-16 09:16:00,
2014-09-16 04:21:00,68.5,66.1,28.70,NNW,338,2.3,2.3,92,0.00,CLR,,0.00,WeatherDisplay:10.37,2014-09-16 09:21:00,
2014-09-16 04:26:00,68.5,66.4,28.70,NNW,338,2.3,2.3,93,0.00,CLR,,0.00,WeatherDisplay:10.37,2014-09-16 09:26:00,
2014-09-16 04:31:00,68.5,66.4,28.69,NNW,338,2.3,2.3,93,0.00,CLR,,0.00,WeatherDisplay:10.37,2014-09-16 09:31:00,
2014-09-16 04:36:00,68.5,66.4,28.69,NNW,338,2.3,2.3,93,0.00,CLR,,0.00,WeatherDisplay:10.37,2014-09-16 09:36:00,
2014-09-16 04:38:00,68.5,66.4,28.69,NW,315,1.2,1.3,93,0.00,CLR,,0.00,WeatherDisplay:10.37,2014-09-16 09:38:00,
2014-09-16 04:43:00,68.4,66.3,28.70,North,360,1.2,1.2,93,0.00,CLR,,0.00,WeatherDisplay:10.37,2014-09-16 09:43:00,
2014-09-16 04:48:00,68.4,66.3,28.70,North,360,2.3,2.3,93,0.00,CLR,,0.00,WeatherDisplay:10.37,2014-09-16 09:48:00,
2014-09-16 04:53:00,68.4,66.3,28.70,North,360,2.3,2.3,93,0.00,CLR,,0.00,WeatherDisplay:10.37,2014-09-16 09:53:00,
2014-09-16 04:58:00,68.2,66.1,28.70,North,360,2.3,2.3,93,0.00,CLR,,0.00,WeatherDisplay:10.37,2014-09-16 09:58:00,
2014-09-16 05:03:00,68.2,66.4,28.70,NNE,22,2.3,2.3,94,0.00,CLR,,0.00,WeatherDisplay:10.37,2014-09-16 10:03:00,
2014-09-16 05:08:00,68.2,66.4,28.69,NNE,22,2.7,2.7,94,0.00,CLR,,0.00,WeatherDisplay:10.37,2014-09-16 10:08:00,
2014-09-16 05:13:00,68.0,66.2,28.69,North,360,0.0,0.0,94,0.00,CLR,,0.00,WeatherDisplay:10.37,2014-09-16 10:13:00,
2014-09-16 05:17:00,68.0,66.2,28.69,SW,225,2.7,2.7,94,0.00,CLR,,0.00,WeatherDisplay:10.37,2014-09-16 10:17:00,
2014-09-16 05:22:00,67.8,66.0,28.69,NE,45,0.0,0.0,94,0.00,CLR,,0.00,WeatherDisplay:10.37,2014-09-16 10:22:00,
2014-09-16 05:27:00,67.8,66.0,28.69,SW,225,1.2,0.0,94,0.00,CLR,,0.00,WeatherDisplay:10.37,2014-09-16 10:27:00,
2014-09-16 05:32:00,67.8,66.0,28.69,West,270,0.0,0.0,94,0.00,CLR,,0.00,WeatherDisplay:10.37,2014-09-16 10:32:00,
2014-09-16 05:37:00,67.8,66.0,28.69,NNW,338,0.0,0.0,94,0.00,CLR,,0.00,WeatherDisplay:10.37,2014-09-16 10:37:00,
2014-09-16 05:42:00,67.6,65.8,28.69,NNE,22,0.0,0.0,94,0.00,CLR,,0.00,WeatherDisplay:10.37,2014-09-16 10:42:00,
2014-09-16 05:47:00,67.6,66.1,28.69,NNE,22,1.1,1.1,95,0.00,CLR,,0.00,WeatherDisplay:10.37,2014-09-16 10:47:00,
2014-09-16 05:52:00,67.6,66.1,28.69,NNE,22,0.0,0.0,95,0.00,CLR,,0.00,WeatherDisplay:10.37,2014-09-16 10:52:00,
2014-09-16 05:57:00,67.6,66.4,28.69,NNE,22,1.2,0.0,96,0.00,CLR,,0.00,WeatherDisplay:10.37,2014-09-16 10:57:00,
2014-09-16 06:02:00,67.6,66.7,28.69,NNE,22,1.7,1.7,97,0.00,CLR,,0.00,WeatherDisplay:10.37,2014-09-16 11:02:00,
2014-09-16 06:07:00,67.6,66.7,28.69,NNE,22,2.3,2.3,97,0.00,CLR,,0.00,WeatherDisplay:10.37,2014-09-16 11:07:00,
2014-09-16 06:12:00,67.6,67.0,28.69,NE,45,1.2,1.3,98,0.00,CLR,,0.00,WeatherDisplay:10.37,2014-09-16 11:12:00,
2014-09-16 06:17:00,67.6,67.0,28.70,NE,45,2.7,2.7,98,0.00,CLR,,0.00,WeatherDisplay:10.37,2014-09-16 11:17:00,
2014-09-16 06:22:00,67.6,67.0,28.70,NE,45,0.0,0.0,98,0.00,CLR,,0.00,WeatherDisplay:10.37,2014-09-16 11:22:00,
2014-09-16 06:27:00,67.6,67.0,28.70,NNW,338,1.2,1.3,98,0.00,CLR,,0.00,WeatherDisplay:10.37,2014-09-16 11:27:00,
2014-09-16 06:32:00,67.6,67.0,28.70,NNE,22,2.3,2.3,98,0.00,CLR,,0.00,WeatherDisplay:10.37,2014-09-16 11:32:00,
2014-09-16 06:37:00,67.6,67.0,28.70,NNE,22,2.7,2.7,98,0.00,CLR,,0.00,WeatherDisplay:10.37,2014-09-16 11:37:00,
2014-09-16 06:42:00,67.6,67.0,28.70,NE,45,3.5,3.5,98,0.00,CLR,,0.00,WeatherDisplay:10.37,2014-09-16 11:42:00,
2014-09-16 06:47:00,67.5,66.9,28.70,North,360,2.7,2.7,98,0.00,CLR,,0.00,WeatherDisplay:10.37,2014-09-16 11:47:00,
2014-09-16 06:52:00,67.5,66.9,28.70,North,360,1.7,1.7,98,0.00,CLR,,0.00,WeatherDisplay:10.37,2014-09-16 11:52:00,
2014-09-16 06:57:00,67.5,66.9,28.70,North,360,2.3,2.3,98,0.00,CLR,,0.00,WeatherDisplay:10.37,2014-09-16 11:57:00,
2014-09-16 07:02:00,67.5,66.9,28.70,NNE,22,2.3,2.3,98,0.00,CLR,,0.00,WeatherDisplay:10.37,2014-09-16 12:02:00,
2014-09-16 07:07:00,67.5,66.9,28.70,NNE,22,2.3,2.3,98,0.00,CLR,,0.00,WeatherDisplay:10.37,2014-09-16 12:07:00,
2014-09-16 07:11:00,67.5,66.9,28.70,NW,315,1.7,2.0,98,0.00,CLR,,0.00,WeatherDisplay:10.37,2014-09-16 12:11:00,
2014-09-16 07:16:00,67.5,66.9,28.70,North,360,2.3,2.3,98,0.00,CLR,,0.00,WeatherDisplay:10.37,2014-09-16 12:16:00,
2014-09-16 07:21:00,67.3,66.7,28.71,NW,315,2.3,2.3,98,0.00,CLR,,0.00,WeatherDisplay:10.37,2014-09-16 12:21:00,
2014-09-16 07:26:00,67.3,66.7,28.71,NNE,22,2.3,2.3,98,0.00,CLR,,0.00,WeatherDisplay:10.37,2014-09-16 12:26:00,
2014-09-16 07:31:00,67.3,66.7,28.71,NE,45,1.7,1.7,98,0.00,CLR,,0.00,WeatherDisplay:10.37,2014-09-16 12:31:00,
2014-09-16 07:36:00,67.3,66.7,28.71,NNE,22,2.3,2.3,98,0.00,CLR,,0.00,WeatherDisplay:10.37,2014-09-16 12:36:00,
2014-09-16 07:41:00,67.3,66.7,28.70,NNE,22,3.2,3.2,98,0.00,CLR,,0.00,WeatherDisplay:10.37,2014-09-16 12:41:00,
2014-09-16 07:46:00,67.3,66.7,28.70,NW,315,2.3,2.5,98,0.00,CLR,,0.00,WeatherDisplay:10.37,2014-09-16 12:46:00,
2014-09-16 07:51:00,67.1,66.5,28.71,North,360,2.7,2.7,98,0.00,CLR,,0.00,WeatherDisplay:10.37,2014-09-16 12:51:00,
2014-09-16 07:56:00,67.1,66.5,28.71,NNE,22,2.7,2.7,98,0.00,CLR,,0.00,WeatherDisplay:10.37,2014-09-16 12:56:00,
2014-09-16 08:01:00,67.1,66.5,28.71,NNW,338,2.3,2.3,98,0.00,CLR,,0.00,WeatherDisplay:10.37,2014-09-16 13:01:00,
2014-09-16 08:06:00,67.1,66.5,28.70,NNW,338,2.3,2.3,98,0.00,CLR,,0.00,WeatherDisplay:10.37,2014-09-16 13:06:00,
2014-09-16 08:11:00,67.3,66.7,28.70,North,360,2.3,0.0,98,0.00,CLR,,0.00,WeatherDisplay:10.37,2014-09-16 13:11:00,
2014-09-16 08:16:00,67.3,66.7,28.71,NNE,22,1.7,1.7,98,0.00,CLR,,0.00,WeatherDisplay:10.37,2014-09-16 13:16:00,
2014-09-16 08:21:00,67.3,66.7,28.71,NE,45,2.3,2.3,98,0.00,CLR,,0.00,WeatherDisplay:10.37,2014-09-16 13:21:00,
2014-09-16 08:26:00,67.3,66.7,28.71,NE,45,2.3,2.3,98,0.00,CLR,,0.00,WeatherDisplay:10.37,2014-09-16 13:26:00,
2014-09-16 08:31:00,67.3,66.7,28.70,NNE,22,3.2,3.2,98,0.00,CLR,,0.00,WeatherDisplay:10.37,2014-09-16 13:31:00,
2014-09-16 08:36:00,67.3,66.7,28.70,NNE,22,3.5,3.5,98,0.00,CLR,,0.00,WeatherDisplay:10.37,2014-09-16 13:36:00,
2014-09-16 08:42:00,67.3,66.7,28.71,NE,45,2.7,2.7,98,0.00,CLR,,0.00,WeatherDisplay:10.37,2014-09-16 13:42:00,
2014-09-16 08:47:00,67.1,66.5,28.71,North,360,2.3,2.3,98,0.00,CLR,,0.00,WeatherDisplay:10.37,2014-09-16 13:47:00,
2014-09-16 08:52:00,67.3,66.7,28.71,NNE,22,2.3,2.3,98,0.00,CLR,,0.00,WeatherDisplay:10.37,2014-09-16 13:52:00,
2014-09-16 08:57:00,67.1,66.5,28.71,NNW,338,3.5,3.5,98,0.00,CLR,,0.00,WeatherDisplay:10.37,2014-09-16 13:57:00,
2014-09-16 09:02:00,66.9,66.3,28.71,NNE,22,3.5,3.5,98,0.00,CLR,,0.00,WeatherDisplay:10.37,2014-09-16 14:02:00,
2014-09-16 09:07:00,66.9,66.3,28.71,NNE,22,3.5,3.5,98,0.00,CLR,,0.00,WeatherDisplay:10.37,2014-09-16 14:07:00,
2014-09-16 09:12:00,66.7,66.1,28.71,West,270,3.5,3.5,98,0.00,CLR,,0.00,WeatherDisplay:10.37,2014-09-16 14:12:00,
2014-09-16 09:17:00,66.4,65.8,28.71,NNE,22,5.8,5.8,98,0.00,CLR,,0.00,WeatherDisplay:10.37,2014-09-16 14:17:00,
2014-09-16 09:21:00,66.4,65.8,28.71,NNE,22,4.6,4.6,98,0.00,CLR,,0.00,WeatherDisplay:10.37,2014-09-16 14:21:00,
2014-09-16 09:26:00,66.4,65.8,28.71,NNW,338,2.7,2.7,98,0.00,CLR,,0.00,WeatherDisplay:10.37,2014-09-16 14:26:00,
2014-09-16 09:31:00,66.4,65.8,28.71,NNE,22,3.5,3.5,98,0.00,CLR,,0.00,WeatherDisplay:10.37,2014-09-16 14:31:00,
2014-09-16 09:36:00,66.7,66.1,28.71,WNW,292,2.7,2.7,98,0.00,CLR,,0.00,WeatherDisplay:10.37,2014-09-16 14:36:00,
2014-09-16 09:41:00,67.1,66.5,28.71,North,360,3.5,3.5,98,0.00,CLR,,0.00,WeatherDisplay:10.37,2014-09-16 14:41:00,
2014-09-16 09:46:00,67.5,66.9,28.71,NNE,22,3.5,3.5,98,0.00,CLR,,0.00,WeatherDisplay:10.37,2014-09-16 14:46:00,
2014-09-16 09:51:00,68.0,67.1,28.71,West,270,1.1,1.1,97,0.00,CLR,,0.00,WeatherDisplay:10.37,2014-09-16 14:51:00,
2014-09-16 09:56:00,68.4,67.2,28.71,North,360,1.2,1.2,96,0.00,CLR,,0.00,WeatherDisplay:10.37,2014-09-16 14:56:00,
2014-09-16 10:01:00,68.7,67.5,28.71,NNW,338,2.3,2.3,96,0.00,CLR,,0.00,WeatherDisplay:10.37,2014-09-16 15:01:00,
2014-09-16 10:06:00,68.7,67.5,28.71,NNE,22,3.2,3.2,96,0.00,CLR,,0.00,WeatherDisplay:10.37,2014-09-16 15:06:00,
2014-09-16 10:07:00,68.7,67.5,28.71,NW,315,4.6,4.6,96,0.00,CLR,,0.00,WeatherDisplay:10.37,2014-09-16 15:07:00,
2014-09-16 10:12:00,68.9,67.7,28.71,North,360,2.3,2.3,96,0.00,CLR,,0.00,WeatherDisplay:10.37,2014-09-16 15:12:00,
2014-09-16 10:17:00,69.4,67.9,28.71,North,360,1.7,1.7,95,0.00,CLR,,0.00,WeatherDisplay:10.37,2014-09-16 15:17:00,
2014-09-16 10:22:00,69.8,68.3,28.71,North,360,2.7,2.7,95,0.00,CLR,,0.00,WeatherDisplay:10.37,2014-09-16 15:22:00,
2014-09-16 10:27:00,69.8,68.0,28.70,NNW,338,2.3,2.4,94,0.00,CLR,,0.00,WeatherDisplay:10.37,2014-09-16 15:27:00,
2014-09-16 10:32:00,70.0,68.2,28.70,NNE,22,4.6,4.6,94,0.00,CLR,,0.00,WeatherDisplay:10.37,2014-09-16 15:32:00,
2014-09-16 10:37:00,70.3,68.5,28.70,North,360,3.7,3.7,94,0.00,CLR,,0.00,WeatherDisplay:10.37,2014-09-16 15:37:00,
2014-09-16 10:42:00,70.5,68.4,28.70,NNE,22,4.2,4.2,93,0.00,CLR,,0.00,WeatherDisplay:10.37,2014-09-16 15:42:00,
2014-09-16 10:47:00,70.5,68.4,28.70,NNW,338,3.5,3.5,93,0.00,CLR,,0.00,WeatherDisplay:10.37,2014-09-16 15:47:00,
2014-09-16 10:52:00,70.2,68.1,28.70,WNW,292,2.3,2.3,93,0.00,CLR,,0.00,WeatherDisplay:10.37,2014-09-16 15:52:00,
2014-09-16 10:57:00,70.5,68.4,28.70,North,360,0.0,0.0,93,0.00,CLR,,0.00,WeatherDisplay:10.37,2014-09-16 15:57:00,
2014-09-16 11:02:00,71.1,69.0,28.70,NE,45,2.2,2.2,93,0.00,CLR,,0.00,WeatherDisplay:10.37,2014-09-16 16:02:00,
2014-09-16 11:07:00,71.1,69.0,28.70,NW,315,3.2,3.2,93,0.00,CLR,,0.00,WeatherDisplay:10.37,2014-09-16 16:07:00,
2014-09-16 11:12:00,71.2,69.1,28.70,North,360,2.3,2.3,93,0.00,CLR,,0.00,WeatherDisplay:10.37,2014-09-16 16:12:00,
2014-09-16 11:17:00,71.2,69.1,28.70,North,360,2.3,2.3,93,0.00,CLR,,0.00,WeatherDisplay:10.37,2014-09-16 16:17:00,
2014-09-16 11:22:00,70.9,68.8,28.70,NW,315,3.5,3.5,93,0.00,CLR,,0.00,WeatherDisplay:10.37,2014-09-16 16:22:00,
2014-09-16 11:27:00,70.9,68.8,28.70,NW,315,1.7,1.7,93,0.00,CLR,,0.00,WeatherDisplay:10.37,2014-09-16 16:27:00,
2014-09-16 11:32:00,70.7,68.6,28.69,NNE,22,2.7,2.7,93,0.00,CLR,,0.00,WeatherDisplay:10.37,2014-09-16 16:32:00,
2014-09-16 11:37:00,70.9,68.8,28.69,NNW,338,2.3,2.3,93,0.00,CLR,,0.00,WeatherDisplay:10.37,2014-09-16 16:37:00,
2014-09-16 11:42:00,71.1,69.0,28.70,NNW,338,2.2,2.2,93,0.00,CLR,,0.00,WeatherDisplay:10.37,2014-09-16 16:42:00,
2014-09-16 11:47:00,71.4,69.3,28.70,NNE,22,2.3,2.3,93,0.00,CLR,,0.00,WeatherDisplay:10.37,2014-09-16 16:47:00,
2014-09-16 11:52:00,71.6,69.5,28.70,NNE,22,1.2,1.2,93,0.00,CLR,,0.00,WeatherDisplay:10.37,2014-09-16 16:52:00,
2014-09-16 11:57:00,71.1,68.7,28.70,NNW,338,3.5,3.5,92,0.00,CLR,,0.00,WeatherDisplay:10.37,2014-09-16 16:57:00,
2014-09-16 12:02:00,71.8,69.7,28.70,NNW,338,2.7,2.7,93,0.00,CLR,,0.00,WeatherDisplay:10.37,2014-09-16 17:02:00,
2014-09-16 12:07:00,71.6,69.5,28.69,North,360,2.3,2.3,93,0.00,CLR,,0.00,WeatherDisplay:10.37,2014-09-16 17:07:00,
2014-09-16 12:12:00,71.6,69.5,28.69,NNW,338,2.3,2.3,93,0.00,CLR,,0.00,WeatherDisplay:10.37,2014-09-16 17:12:00,
2014-09-16 12:15:00,71.4,69.3,28.69,NNW,338,2.3,2.3,93,0.00,CLR,,0.00,WeatherDisplay:10.37,2014-09-16 17:15:00,
2014-09-16 12:20:00,71.8,69.7,28.69,NNW,338,3.5,3.5,93,0.00,CLR,,0.00,WeatherDisplay:10.37,2014-09-16 17:20:00,
2014-09-16 12:25:00,72.0,69.5,28.69,NE,45,3.5,3.5,92,0.00,CLR,,0.00,WeatherDisplay:10.37,2014-09-16 17:25:00,
2014-09-16 12:29:00,71.4,69.0,28.69,NNW,338,4.6,4.6,92,0.00,CLR,,0.00,WeatherDisplay:10.37,2014-09-16 17:29:00,
2014-09-16 12:34:00,71.4,69.0,28.69,NNE,22,4.7,4.7,92,0.00,CLR,,0.00,WeatherDisplay:10.37,2014-09-16 17:34:00,
2014-09-16 12:39:00,71.4,69.0,28.69,North,360,4.6,4.6,92,0.00,CLR,,0.00,WeatherDisplay:10.37,2014-09-16 17:39:00,
2014-09-16 12:44:00,70.7,68.3,28.69,North,360,5.8,5.8,92,0.00,CLR,,0.00,WeatherDisplay:10.37,2014-09-16 17:44:00,
2014-09-16 12:49:00,70.0,67.6,28.69,NNW,338,4.6,4.6,92,0.00,CLR,,0.00,WeatherDisplay:10.37,2014-09-16 17:49:00,
2014-09-16 12:54:00,70.0,67.6,28.69,NNE,22,4.2,4.2,92,0.00,CLR,,0.00,WeatherDisplay:10.37,2014-09-16 17:54:00,
2014-09-16 12:59:00,70.3,67.9,28.69,NNE,22,4.6,4.6,92,0.00,CLR,,0.00,WeatherDisplay:10.37,2014-09-16 17:59:00,
2014-09-16 13:04:00,69.8,67.4,28.69,NE,45,4.7,4.7,92,0.00,CLR,,0.00,WeatherDisplay:10.37,2014-09-16 18:04:00,
2014-09-16 13:09:00,70.0,67.6,28.68,NE,45,5.8,5.8,92,0.00,CLR,,0.00,WeatherDisplay:10.37,2014-09-16 18:09:00,
2014-09-16 13:14:00,70.7,68.3,28.68,NW,315,4.6,4.6,92,0.00,CLR,,0.00,WeatherDisplay:10.37,2014-09-16 18:14:00,
2014-09-16 13:19:00,70.7,68.3,28.68,NNE,22,4.6,4.6,92,0.00,CLR,,0.00,WeatherDisplay:10.37,2014-09-16 18:19:00,
2014-09-16 13:24:00,71.1,68.7,28.68,NNE,22,3.7,3.7,92,0.00,CLR,,0.00,WeatherDisplay:10.37,2014-09-16 18:24:00,
2014-09-16 13:29:00,71.1,68.7,28.68,NW,315,4.6,4.6,92,0.00,CLR,,0.00,WeatherDisplay:10.37,2014-09-16 18:29:00,
2014-09-16 13:34:00,71.4,68.6,28.68,NNW,338,4.7,4.7,91,0.00,CLR,,0.00,WeatherDisplay:10.37,2014-09-16 18:34:00,
2014-09-16 13:39:00,71.4,68.6,28.68,NNW,338,3.5,3.5,91,0.00,CLR,,0.00,WeatherDisplay:10.37,2014-09-16 18:39:00,
2014-09-16 13:44:00,71.4,68.6,28.68,NNE,22,4.6,4.6,91,0.00,CLR,,0.00,WeatherDisplay:10.37,2014-09-16 18:44:00,
2014-09-16 13:48:00,71.4,68.6,28.68,North,360,2.3,2.3,91,0.00,CLR,,0.00,WeatherDisplay:10.37,2014-09-16 18:48:00,
2014-09-16 13:53:00,72.1,69.3,28.67,NNW,338,2.3,2.3,91,0.00,CLR,,0.00,WeatherDisplay:10.37,2014-09-16 18:53:00,
2014-09-16 13:58:00,72.5,69.4,28.67,NNW,338,2.3,2.5,90,0.00,CLR,,0.00,WeatherDisplay:10.37,2014-09-16 18:58:00,
2014-09-16 14:03:00,72.5,69.4,28.67,WNW,292,0.0,0.0,90,0.00,CLR,,0.00,WeatherDisplay:10.37,2014-09-16 19:03:00,
2014-09-16 14:08:00,72.7,69.6,28.67,NNE,22,3.5,3.5,90,0.00,CLR,,0.00,WeatherDisplay:10.37,2014-09-16 19:08:00,
2014-09-16 14:13:00,73.2,70.1,28.67,NE,45,3.5,3.5,90,0.00,CLR,,0.00,WeatherDisplay:10.37,2014-09-16 19:13:00,
2014-09-16 14:18:00,73.6,70.2,28.66,NNE,22,1.7,1.7,89,0.00,CLR,,0.00,WeatherDisplay:10.37,2014-09-16 19:18:00,
2014-09-16 14:23:00,73.6,70.2,28.66,North,360,3.5,3.5,89,0.00,CLR,,0.00,WeatherDisplay:10.37,2014-09-16 19:23:00,
2014-09-16 14:28:00,73.9,70.5,28.66,North,360,3.5,3.5,89,0.00,CLR,,0.00,WeatherDisplay:10.37,2014-09-16 19:28:00,
2014-09-16 14:33:00,73.0,69.6,28.66,NE,45,3.7,3.7,89,0.00,CLR,,0.00,WeatherDisplay:10.37,2014-09-16 19:33:00,
2014-09-16 14:34:00,73.4,70.0,28.66,North,360,3.5,3.5,89,0.00,CLR,,0.00,WeatherDisplay:10.37,2014-09-16 19:34:00,
2014-09-16 14:39:00,73.6,70.2,28.66,NNW,338,3.5,3.5,89,0.00,CLR,,0.00,WeatherDisplay:10.37,2014-09-16 19:39:00,
2014-09-16 14:44:00,72.9,69.5,28.66,NE,45,4.6,4.6,89,0.00,CLR,,0.00,WeatherDisplay:10.37,2014-09-16 19:44:00,
2014-09-16 14:49:00,73.8,70.4,28.66,NNE,22,2.7,2.7,89,0.00,CLR,,0.00,WeatherDisplay:10.37,2014-09-16 19:49:00,
2014-09-16 14:54:00,73.9,70.1,28.65,WNW,292,2.3,2.3,88,0.00,CLR,,0.00,WeatherDisplay:10.37,2014-09-16 19:54:00,
2014-09-16 14:59:00,73.8,70.0,28.65,NNE,22,4.2,4.2,88,0.00,CLR,,0.00,WeatherDisplay:10.37,2014-09-16 19:59:00,
2014-09-16 15:04:00,73.9,70.1,28.65,North,360,3.7,3.7,88,0.00,CLR,,0.00,WeatherDisplay:10.37,2014-09-16 20:04:00,
2014-09-16 15:09:00,74.5,70.4,28.65,NNW,338,3.5,3.5,87,0.00,CLR,,0.00,WeatherDisplay:10.37,2014-09-16 20:09:00,
2014-09-16 15:11:00,74.3,70.2,28.65,NNW,338,3.5,3.5,87,0.00,CLR,,0.00,WeatherDisplay:10.37,2014-09-16 20:11:00,
2014-09-16 15:16:00,73.8,69.7,28.64,NNE,22,3.5,3.5,87,0.00,CLR,,0.00,WeatherDisplay:10.37,2014-09-16 20:16:00,
2014-09-16 15:21:00,74.1,70.0,28.64,WNW,292,4.6,4.6,87,0.00,CLR,,0.00,WeatherDisplay:10.37,2014-09-16 20:21:00,
2014-09-16 15:26:00,73.6,69.8,28.64,NNE,22,3.7,3.7,88,0.00,CLR,,0.00,WeatherDisplay:10.37,2014-09-16 20:26:00,
2014-09-16 15:31:00,74.3,70.5,28.64,NNE,22,3.2,3.2,88,0.00,CLR,,0.00,WeatherDisplay:10.37,2014-09-16 20:31:00,
2014-09-16 15:36:00,74.1,70.3,28.64,NNE,22,3.5,3.5,88,0.00,CLR,,0.00,WeatherDisplay:10.37,2014-09-16 20:36:00,
2014-09-16 15:41:00,74.7,70.2,28.64,NNW,338,4.6,4.6,86,0.00,CLR,,0.00,WeatherDisplay:10.37,2014-09-16 20:41:00,
2014-09-16 15:46:00,73.8,69.7,28.64,North,360,3.5,3.5,87,0.00,CLR,,0.00,WeatherDisplay:10.37,2014-09-16 20:46:00,
2014-09-16 15:51:00,74.1,70.0,28.64,North,360,3.5,3.5,87,0.00,CLR,,0.00,WeatherDisplay:10.37,2014-09-16 20:51:00,
2014-09-16 15:56:00,74.1,70.0,28.64,North,360,3.5,3.5,87,0.00,CLR,,0.00,WeatherDisplay:10.37,2014-09-16 20:56:00,
2014-09-16 16:01:00,74.8,70.3,28.64,West,270,1.2,1.2,86,0.00,CLR,,0.00,WeatherDisplay:10.37,2014-09-16 21:01:00,
2014-09-16 16:06:00,75.6,70.8,28.63,NW,315,2.3,2.3,85,0.00,CLR,,0.00,WeatherDisplay:10.37,2014-09-16 21:06:00,
2014-09-16 16:11:00,76.8,70.5,28.63,NNE,22,4.2,4.2,81,0.00,CLR,,0.00,WeatherDisplay:10.37,2014-09-16 21:11:00,
2014-09-16 16:16:00,75.2,69.3,28.63,North,360,3.5,3.5,82,0.00,CLR,,0.00,WeatherDisplay:10.37,2014-09-16 21:16:00,
2014-09-16 16:21:00,76.8,70.5,28.62,NNW,338,1.2,1.2,81,0.00,CLR,,0.00,WeatherDisplay:10.37,2014-09-16 21:21:00,
2014-09-16 16:26:00,78.1,70.7,28.62,NW,315,2.3,2.3,78,0.00,CLR,,0.00,WeatherDisplay:10.37,2014-09-16 21:26:00,
2014-09-16 16:31:00,77.7,70.7,28.62,NNW,338,2.3,2.3,79,0.00,CLR,,0.00,WeatherDisplay:10.37,2014-09-16 21:31:00,
2014-09-16 16:36:00,77.9,70.5,28.62,NW,315,2.3,2.3,78,0.00,CLR,,0.00,WeatherDisplay:10.37,2014-09-16 21:36:00,
2014-09-16 16:41:00,77.2,70.5,28.61,North,360,2.3,2.3,80,0.00,CLR,,0.00,WeatherDisplay:10.37,2014-09-16 21:41:00,
2014-09-16 16:46:00,77.0,70.4,28.61,NNW,338,2.3,2.3,80,0.00,CLR,,0.00,WeatherDisplay:10.37,2014-09-16 21:46:00,
2014-09-16 16:51:00,77.2,70.5,28.61,WNW,292,1.2,1.2,80,0.00,CLR,,0.00,WeatherDisplay:10.37,2014-09-16 21:51:00,
2014-09-16 16:56:00,77.2,70.5,28.61,South,180,3.2,3.2,80,0.00,CLR,,0.00,WeatherDisplay:10.37,2014-09-16 21:56:00,
2014-09-16 17:01:00,76.6,70.0,28.61,NNE,22,3.7,3.7,80,0.00,CLR,,0.00,WeatherDisplay:10.37,2014-09-16 22:01:00,
2014-09-16 17:06:00,77.5,70.5,28.61,NNE,22,2.3,2.3,79,0.00,CLR,,0.00,WeatherDisplay:10.37,2014-09-16 22:06:00,
2014-09-16 17:10:00,77.5,70.1,28.61,NNE,22,4.7,4.7,78,0.00,CLR,,0.00,WeatherDisplay:10.37,2014-09-16 22:10:00,
2014-09-16 17:15:00,77.2,70.2,28.61,NE,45,3.5,3.5,79,0.00,CLR,,0.00,WeatherDisplay:10.37,2014-09-16 22:15:00,
2014-09-16 17:20:00,76.8,70.2,28.61,NW,315,2.3,2.3,80,0.00,CLR,,0.00,WeatherDisplay:10.37,2014-09-16 22:20:00,